DELTA 4 R/B, 41746

Orbit data source: Space-Track

DELTA 4 R/B, 41746 is space debris in GEO originally from a launch on Fri, 19 Aug 2016 UTC launched from the Air Force Eastern Test Range (AFETR). Debris objects in space refer to the collection of defunct objects orbiting the Earth. Examples of debris include non-operational satellites, rocket bodies, and fragments generated from explosions, collisions, or faulty payload assembly.

Loading next visibility...
DELTA 4 R/B details
Identifier
41746, 2016-052C
Orbit
GEO
Last TLE update12 hours ago
Origin
Flag of USULA (US)
ManufacturerULA Decatur
Mission2))"
Bus & MotorDCSS-4, RL10B-2
Mass2,850 kg wet, 2,850 kg dry
Launch date (UTC)
2016-08-19 (8 years ago)
Launch vehicleUnknown
Launch site
Air Force Eastern Test Range (AFETR)
Object type
Payload
Rocket body
Debris
Shape & HBRCyl + 1 Nozzle, Unknown HBR
Radar Cross Section43.982 m²

Expand to show TLE details & history

TLE from 12 hours ago
0 DELTA 4 R/B
1 41746U 16052C   24361.18795439  .00000037  00000-0  00000-0 0  9998
2 41746   7.4329  62.9748 0005524 313.4882  46.3519  0.98990504 20352
Epoch: 2024-12-26T04:30Z
Definitive object data (Epoch: 2024-12-26T04:30:39.259Z)
Latitude-0°
Longitude-99.97767°
Altitude36,132.978 km
Speed3.063 km/s
True Right ascension04h 11m 25s
True Declination0° 00' 00"
Sunlit
Object was in daylight at TLE epoch
Visualization TLE readout
Latitude0.19656°
Longitude78.51277°
Altitude36,165.767 km
Speed3.06 km/s
Apparent Right ascension16h 06m 49s
Apparent Declination-5° 57' 05"
Sunlit
Object is in daylight
Visualization observer readout
Local Sidereal Time15:54:21
Azimuth175.688° S
Elevation44.043°
Doppler factor1
Orbital elements
Apogee altitude36,174.182 km
Perigee altitude36,127.196 km
Semi-major axis42,528.826 km
Eccentricity0.0005524
Inclination7.4329°
RAAN62.9748°
Arg. of periapsis313.4882°
True anomaly46.39773°
Mean anomaly46.3519°
Eccentric anomaly46.37481°
Mean motion0.24747 °/min
BSTARUnknown
Orbital period1454.74 mins
Loading historical data...
41746 neighbors
Authenticating...
Loading maneuver chart data...
Loading historical data...
Loading historical data...
Loading historical data...
Loading historical data...
Loading historical data...
Loading historical data...
Loading historical data...
Other satellites on launch #52 in the year 2016 (2016-08-19 UTC)

DELTA 4 R/B Visibility forecast

Observer location: undefined°, undefined

Span
Click to sort rows by Start time (UTC) header in descending order
Start Az.
Max El. time (UTC)
Max El. Az.
Max El.
End time (UTC)
End Az.
1440 mins2024-12-26 16:32:10.563Z175.689° S2024-12-27 10:51:10.563Z181.271° SSW38.345°2024-12-27 16:32:10.563Z182.882° SSW
|